Find GOES 6

NORAD ID: 14050 Int'l Des: 1983-041 Owner: NOAA Country: US operational
HEOCIRCULAR

現在のビュー

3D地球を読み込み中...

GOES 6について

説明を読み込み中...

次回通過

Passes for default location (London). Set your location on the main map for personalized predictions.

高度履歴

Loading altitude history...

軌道要素

1 14050U 83041A 26151.19491867 .00000031 00000-0 00000+0 0 9999
2 14050 10.2190 321.3594 0001044 275.0274 317.6037 1.00232085215846
Epoch: May 31, 2026 • Age: 5 hours

現在のステータス

高度 35794.9 km
速度 3.07 km/s
衛星直下点 -8.60°S, 124.5°W
打ち上げ日 Apr 28, 1983
運用期間 43 years
タイプ weather

技術仕様

分類 Payload
質量 399.00 kg
乾燥質量 296.00 kg
総質量 839.00 kg
長さ 3.70 m
直径 2.20 m
スパン 4.40 m
形状 Cyl
製造者 HSES
バスタイプ HS-371
フェーズステータス In Orbit
所有者/国 NOAA/US

Most Searched